TimeCDT,TemperatureF,Dew PointF,Humidity,Sea Level PressureIn,VisibilityMPH,Wind Direction,Wind SpeedMPH,Gust SpeedMPH,PrecipitationIn,Events,Conditions,WindDirDegrees,DateUTC
12:15 AM,30.2,14.2,51,29.96,10.0,WNW,17.3,26.5,N/A,,Clear,290,2013-03-19 05:15:00
12:35 AM,29.5,13.3,51,29.95,10.0,WNW,16.1,23.0,N/A,,Clear,290,2013-03-19 05:35:00
12:55 AM,28.9,12.2,50,29.95,10.0,WNW,13.8,18.4,N/A,,Clear,290,2013-03-19 05:55:00
1:15 AM,28.4,12.4,51,29.97,10.0,West,12.7,19.6,N/A,,Clear,280,2013-03-19 06:15:00
1:35 AM,28.0,12.7,53,29.98,10.0,West,12.7,20.7,N/A,,Clear,280,2013-03-19 06:35:00
1:55 AM,27.5,13.1,55,29.98,10.0,WNW,11.5,18.4,N/A,,Clear,290,2013-03-19 06:55:00
2:15 AM,27.1,12.6,54,29.98,10.0,WNW,13.8,19.6,N/A,,Clear,290,2013-03-19 07:15:00
2:35 AM,26.6,12.2,55,29.99,10.0,WNW,11.5,19.6,N/A,,Clear,290,2013-03-19 07:35:00
2:55 AM,26.4,11.5,53,30.00,10.0,WNW,13.8,19.6,N/A,,Clear,290,2013-03-19 07:55:00
3:15 AM,26.2,12.2,55,30.00,10.0,WNW,12.7,-,N/A,,Clear,290,2013-03-19 08:15:00
3:35 AM,26.2,11.3,53,30.00,10.0,West,19.6,24.2,N/A,,Clear,280,2013-03-19 08:35:00
3:55 AM,26.1,11.3,54,30.00,10.0,WNW,13.8,20.7,N/A,,Clear,300,2013-03-19 08:55:00
4:15 AM,26.1,9.1,49,30.00,10.0,WNW,19.6,24.2,N/A,,Clear,300,2013-03-19 09:15:00
4:35 AM,25.7,9.5,50,30.01,10.0,WNW,16.1,23.0,N/A,,Clear,290,2013-03-19 09:35:00
4:55 AM,25.5,10.9,54,30.02,10.0,West,12.7,-,N/A,,Clear,280,2013-03-19 09:55:00
5:15 AM,25.7,9.3,50,30.02,10.0,WNW,17.3,26.5,N/A,,Clear,290,2013-03-19 10:15:00
5:35 AM,25.3,9.3,51,30.03,10.0,WNW,15.0,21.9,N/A,,Clear,290,2013-03-19 10:35:00
5:55 AM,25.2,8.2,49,30.03,10.0,West,11.5,20.7,N/A,,Clear,280,2013-03-19 10:55:00
6:15 AM,25.0,7.9,48,30.05,10.0,WNW,12.7,20.7,N/A,,Clear,290,2013-03-19 11:15:00
6:35 AM,24.8,7.5,48,30.06,10.0,WNW,12.7,-,N/A,,Clear,290,2013-03-19 11:35:00
6:55 AM,24.6,7.9,49,30.07,10.0,WNW,16.1,21.9,N/A,,Clear,290,2013-03-19 11:55:00
7:15 AM,24.3,7.9,50,30.07,10.0,WNW,19.6,26.5,N/A,,Clear,290,2013-03-19 12:15:00
7:35 AM,24.4,7.7,49,30.07,10.0,WNW,13.8,19.6,N/A,,Clear,300,2013-03-19 12:35:00
7:55 AM,24.8,7.7,48,30.08,10.0,WNW,10.4,19.6,N/A,,Clear,300,2013-03-19 12:55:00
8:15 AM,25.3,7.3,47,30.09,10.0,WNW,15.0,-,N/A,,Clear,290,2013-03-19 13:15:00
8:35 AM,26.1,6.6,44,30.10,10.0,WNW,12.7,19.6,N/A,,Clear,290,2013-03-19 13:35:00
8:55 AM,26.6,6.6,43,30.11,10.0,WNW,15.0,23.0,N/A,,Clear,290,2013-03-19 13:55:00
9:15 AM,27.1,5.9,41,30.12,10.0,West,17.3,21.9,N/A,,Clear,280,2013-03-19 14:15:00
9:35 AM,28.2,4.1,36,30.13,10.0,West,15.0,23.0,N/A,,Clear,280,2013-03-19 14:35:00
9:55 AM,29.3,5.2,36,30.14,10.0,West,21.9,25.3,N/A,,Clear,280,2013-03-19 14:55:00
10:15 AM,30.9,5.7,35,30.15,10.0,West,16.1,21.9,N/A,,Clear,270,2013-03-19 15:15:00
10:35 AM,31.1,4.5,32,30.15,10.0,WNW,20.7,24.2,N/A,,Clear,290,2013-03-19 15:35:00
10:55 AM,32.0,4.3,31,30.15,10.0,WNW,15.0,23.0,N/A,,Clear,290,2013-03-19 15:55:00
11:15 AM,33.3,3.9,29,30.16,10.0,WNW,15.0,20.7,N/A,,Clear,290,2013-03-19 16:15:00
11:35 AM,33.8,3.4,28,30.16,10.0,WNW,15.0,23.0,N/A,,Clear,290,2013-03-19 16:35:00
11:55 AM,34.5,1.0,24,30.17,10.0,WNW,13.8,23.0,N/A,,Clear,290,2013-03-19 16:55:00
12:15 PM,35.8,2.5,25,30.18,10.0,West,15.0,20.7,N/A,,Clear,280,2013-03-19 17:15:00
12:35 PM,36.1,2.5,24,30.18,10.0,West,12.7,18.4,N/A,,Clear,280,2013-03-19 17:35:00
12:55 PM,37.4,2.8,24,30.18,10.0,West,13.8,20.7,N/A,,Clear,270,2013-03-19 17:55:00
1:15 PM,38.7,4.6,24,30.18,10.0,West,16.1,20.7,N/A,,Clear,270,2013-03-19 18:15:00
1:35 PM,38.3,4.5,24,30.18,10.0,West,15.0,19.6,N/A,,Clear,280,2013-03-19 18:35:00
1:55 PM,39.2,2.8,22,30.18,10.0,West,13.8,20.7,N/A,,Clear,270,2013-03-19 18:55:00
2:15 PM,40.1,3.0,21,30.17,10.0,West,11.5,17.3,N/A,,Clear,280,2013-03-19 19:15:00
2:35 PM,40.8,6.1,24,30.16,10.0,West,10.4,18.4,N/A,,Clear,260,2013-03-19 19:35:00
2:55 PM,41.5,5.0,22,30.16,10.0,WNW,11.5,17.3,N/A,,Clear,290,2013-03-19 19:55:00
3:15 PM,41.9,2.5,19,30.17,10.0,West,11.5,19.6,N/A,,Clear,280,2013-03-19 20:15:00
3:35 PM,42.8,1.2,18,30.17,10.0,WNW,17.3,21.9,N/A,,Clear,290,2013-03-19 20:35:00
3:55 PM,43.5,3.0,19,30.16,10.0,WNW,15.0,19.6,N/A,,Scattered Clouds,290,2013-03-19 20:55:00
4:15 PM,43.9,-2.6,14,30.16,10.0,West,11.5,-,N/A,,Clear,270,2013-03-19 21:15:00
4:35 PM,44.8,0.3,16,30.16,10.0,West,13.8,17.3,N/A,,Scattered Clouds,280,2013-03-19 21:35:00
4:55 PM,44.6,-0.6,15,30.16,10.0,West,10.4,-,N/A,,Scattered Clouds,270,2013-03-19 21:55:00
5:15 PM,45.5,1.2,16,30.15,10.0,WNW,11.5,-,N/A,,Clear,300,2013-03-19 22:15:00
5:35 PM,45.5,2.8,17,30.15,10.0,West,11.5,-,N/A,,Clear,280,2013-03-19 22:35:00
5:55 PM,44.4,4.1,19,30.15,10.0,WNW,6.9,-,N/A,,Clear,300,2013-03-19 22:55:00
6:15 PM,44.1,4.5,20,30.16,10.0,WNW,11.5,-,N/A,,Scattered Clouds,290,2013-03-19 23:15:00
6:35 PM,43.2,5.7,21,30.16,10.0,WNW,8.1,-,N/A,,Scattered Clouds,290,2013-03-19 23:35:00
6:55 PM,42.1,8.1,25,30.16,10.0,NW,5.8,-,N/A,,Clear,310,2013-03-19 23:55:00
7:15 PM,40.3,9.5,28,30.16,10.0,NW,3.5,-,N/A,,Clear,320,2013-03-20 00:15:00
7:35 PM,38.8,8.6,29,30.17,10.0,NW,4.6,-,N/A,,Clear,310,2013-03-20 00:35:00
7:55 PM,37.6,11.3,34,30.17,10.0,NW,3.5,-,N/A,,Clear,310,2013-03-20 00:55:00
8:35 PM,35.8,13.8,41,30.17,10.0,NNW,6.9,-,N/A,,Clear,340,2013-03-20 01:35:00
8:55 PM,33.3,16.5,50,30.16,10.0,NNW,8.1,-,N/A,,Clear,340,2013-03-20 01:55:00
9:15 PM,34.2,15.4,46,30.16,10.0,NNW,5.8,-,N/A,,Clear,330,2013-03-20 02:15:00
9:35 PM,33.8,16.3,49,30.16,10.0,NNW,4.6,-,N/A,,Clear,330,2013-03-20 02:35:00
9:55 PM,34.0,17.6,51,30.17,10.0,NNW,6.9,-,N/A,,Scattered Clouds,330,2013-03-20 02:55:00
10:15 PM,35.2,16.5,47,30.17,10.0,NW,8.1,-,N/A,,Overcast,320,2013-03-20 03:15:00
10:35 PM,34.9,16.5,47,30.17,10.0,NW,9.2,-,N/A,,Overcast,320,2013-03-20 03:35:00
10:55 PM,34.7,16.3,47,30.18,10.0,NW,10.4,-,N/A,,Mostly Cloudy,320,2013-03-20 03:55:00
11:15 PM,34.2,17.8,51,30.19,10.0,NNW,16.1,-,N/A,,Mostly Cloudy,330,2013-03-20 04:15:00
11:35 PM,32.9,19.4,58,30.18,10.0,NNW,8.1,-,N/A,,Scattered Clouds,330,2013-03-20 04:35:00
11:55 PM,32.2,19.0,58,30.18,10.0,NW,5.8,-,N/A,,Scattered Clouds,310,2013-03-20 04:55:00